Flag for Germany Weather past 2 weeks in Leipzig, Saxony, Germany

Now
43 °F

Passing clouds.


Feels Like: 33 °F
Forecast: 38 / 52 °F
Wind: 23 mph from Southwest

Location: Leipzig-Schkeuditz

Current Time: Mar 30, 2015 at 7:53:02 AM

Latest Report: Mar 30, 2015 at 7:20 AM


Visibility: N/A

Pressure: 29.30 "Hg

Humidity: 81%

Dew point: 37 °F

Location of LeipzigLocation

Historic Weather in Leipzig — Graph

°F

Leipzig temperature yesterday

Maximum temperature yesterday: 54 °F (at 12:50 PM)
Minimum temperature yesterday: 46 °F (at 4:50 AM)
Average temperature yesterday: 50 °F

Past Weeks' High & Low Weather Summary

 TemperatureHumidityPressure
High63 °F (Mar 17, 2:50 PM)100% (Mar 15, 5:20 AM)30.39 "Hg (Mar 15, 5:20 AM)
Low25 °F (Mar 23, 2:50 AM)28% (Mar 19, 3:20 PM)29.18 "Hg (Mar 29, 10:20 PM)
Average44 °F74%30.04 "Hg
* Reported Mar 15 5:20 AM — Mar 30 6:20 AM, Leipzig, Weather by CustomWeather, © 2015

Note: Actual official high and low records may vary slightly from our data, if they occured in-between our weather recording intervals... More about our weather records

Advertising

Leipzig weather history for previous 24 hours

 ConditionsComfort  
Time TempWeatherWind HumidityBarometerVisibility
6:20 AM
Mon, Mar 30
45 °FPartly cloudy.18 mph76%29.30 "HgN/A
5:50 AM43 °FPartly cloudy.17 mph81%29.30 "HgN/A
5:20 AM43 °FClear.18 mph76%29.30 "Hg10 mi
4:50 AM43 °FPassing clouds.21 mph76%29.30 "HgN/A
4:20 AM41 °FPassing clouds.18 mph87%29.30 "HgN/A
3:50 AM43 °FPassing clouds.24 mph81%29.30 "HgN/A
3:20 AM43 °FPassing clouds.26 mph81%29.27 "HgN/A
2:50 AM43 °FPassing clouds.30 mph81%29.27 "HgN/A
2:20 AM46 °FPassing clouds.24 mph71%29.24 "HgN/A
1:50 AM48 °FLight rain. Passing clouds.28 mph71%29.24 "HgN/A
1:20 AM48 °FPassing clouds.26 mph71%29.21 "HgN/A
12:50 AM46 °FPassing clouds.28 mph76%29.21 "HgN/A
12:20 AM48 °FPassing clouds.30 mph71%29.18 "HgN/A
11:50 PM
Sun, Mar 29
48 °FSprinkles. Partly cloudy.25 mph82%29.18 "HgN/A
11:20 PM52 °FPartly cloudy.25 mph82%29.18 "HgN/A
10:50 PM52 °FPassing clouds.30 mph82%29.18 "HgN/A
10:20 PM52 °FPartly cloudy.26 mph82%29.18 "HgN/A
9:50 PM50 °FLight rain. Passing clouds.21 mph88%29.21 "HgN/A
9:20 PM50 °FPassing clouds.21 mph88%29.24 "HgN/A
8:50 PM50 °FPassing clouds.17 mph88%29.27 "HgN/A
8:20 PM50 °FLight rain. Partly sunny.22 mph88%29.30 "HgN/A
7:50 PM50 °FLight rain. Partly sunny.18 mph82%29.33 "HgN/A
7:20 PM50 °FPartly sunny.20 mph82%29.33 "HgN/A
6:50 PM50 °FLight rain. Partly sunny.16 mph88%29.36 "HgN/A
6:20 PM50 °FLight rain. Overcast.17 mph88%29.39 "HgN/A
5:50 PM50 °FLight rain. Overcast.18 mph88%29.42 "HgN/A
5:20 PM50 °FLight rain. More clouds than sun.17 mph88%29.45 "HgN/A
4:50 PM50 °FLight rain. More clouds than sun.15 mph88%29.45 "HgN/A
4:20 PM50 °FLight rain. More clouds than sun.18 mph88%29.47 "HgN/A
3:50 PM50 °FLight rain. More clouds than sun.18 mph88%29.50 "HgN/A
3:20 PM50 °FLight rain. More clouds than sun.21 mph88%29.50 "HgN/A
2:50 PM50 °FLight rain. Mostly cloudy.16 mph94%29.53 "HgN/A
2:20 PM50 °FLight rain. More clouds than sun.20 mph94%29.53 "HgN/A
1:50 PM52 °FLight rain. Overcast.20 mph82%29.56 "HgN/A
1:20 PM52 °FLight rain. More clouds than sun.16 mph82%29.56 "HgN/A
12:50 PM54 °FLight rain. Partly sunny.16 mph72%29.56 "HgN/A
12:20 PM52 °FPartly sunny.20 mph82%29.56 "HgN/A
11:50 AM52 °FPartly sunny.21 mph82%29.59 "HgN/A
11:20 AM50 °FBroken clouds.20 mph88%29.59 "HgN/A
10:50 AM50 °FPartly sunny.22 mph88%29.62 "HgN/A
10:20 AM50 °FOvercast.22 mph94%29.62 "HgN/A
9:50 AM50 °FPartly sunny.14 mph94%29.62 "HgN/A
9:20 AM50 °FSprinkles. Scattered clouds.14 mph94%29.65 "HgN/A
8:50 AM50 °FSprinkles. Broken clouds.16 mph94%29.65 "Hg6 mi
8:20 AM52 °FPartly sunny.18 mph77%29.65 "HgN/A
7:50 AM50 °FPassing clouds.16 mph82%29.65 "HgN/A
7:20 AM48 °FPassing clouds.17 mph87%29.65 "HgN/A
Weather by CustomWeather, © 2015

See weather overviewHow to use our weather pages